This demonstration page uses our WeatherBlox Daily Observations layout. Learn more.

Left ArrowRight Arrow

44.8408, -93.29828

Hourly Observations for November 18, 2019

Temp ( °F °C ) Dew Point ( °F °C ) Humidity (%) Winds ( mph kmh ) Pressure ( in mb ) Visibility ( mi km ) Precip ( " mm )
12:53 am 00:53 Cloudy 32 0 26 -3.3 79 79 W 7 11 29.86 1011 10 16 0.00 0.00
1:53 am 01:53 Cloudy 32 0 26 -3.3 79 79 WNW 5 7 29.85 1011 10 16 0.00 0.00
2:53 am 02:53 Cloudy 32 0 25 -3.9 75 75 Calm 29.83 1010 10 16 0.00 0.00
3:53 am 03:53 Cloudy 32 0 25 -3.9 75 75 WSW 6 9 29.83 1010 10 16 0.00 0.00
4:53 am 04:53 Cloudy 32 0 25 -3.9 75 75 S 3 6 29.82 1010 10 16 0.00 0.00
5:14 am 05:14 Cloudy 32 0 25 -3.9 75 75 S 6 9 29.84 1010 10 16 0.00 0.00
5:44 am 05:44 Cloudy 31 -0.6 25 -3.9 79 79 SSW 3 6 29.85 1011 10 16 0.00 0.00
5:53 am 05:53 Cloudy 31 -0.6 26 -3.3 82 82 SSW 5 7 29.82 1010 10 16 0.00 0.00
6:53 am 06:53 Cloudy 32 0 27 -2.8 82 82 S 3 6 29.81 1010 10 16 0.00 0.00
7:53 am 07:53 Cloudy 32 0 27 -2.8 82 82 SSE 5 7 29.81 1010 10 16 0.00 0.00
8:53 am 08:53 Cloudy 32 0 28 -2.2 85 85 SE 8 13 29.80 1009 8 13 0.00 0.00
9:05 am 09:05 Cloudy 32 0 28 -2.2 85 85 SE 7 11 29.82 1010 9 14 0.00 0.00
9:33 am 09:33 Cloudy 33 0.6 29 -1.7 85 85 SE 9 15 29.80 1009 9 14 0.00 0.00
9:53 am 09:53 Cloudy 32 0 29 -1.7 88 88 SE 9 15 29.78 1009 9 14 0.00 0.00
10:53 am 10:53 Cloudy 34 1.1 30 -1.1 85 85 S 7 11 29.77 1008 10 16 0.00 0.00
11:53 am 11:53 Cloudy 35 1.7 30 -1.1 82 82 SE 9 15 29.74 1007 10 16 0.00 0.00
12:21 pm 12:21 Cloudy 36 2.2 30 -1.1 79 79 S 9 15 29.75 1007 10 16 0.00 0.00
12:53 pm 12:53 Cloudy 36 2.2 30 -1.1 79 79 SSE 8 13 29.72 1006 10 16 0.00 0.00
1:53 pm 13:53 Cloudy 37 2.8 30 -1.1 76 76 SE 9 15 29.70 1006 10 16 0.00 0.00
2:53 pm 14:53 Cloudy 37 2.8 30 -1.1 76 76 ESE 10 17 29.69 1006 8 13 0.00 0.00
3:53 pm 15:53 Cloudy 36 2.2 30 -1.1 79 79 SE 9 15 29.70 1006 8 13 0.00 0.00
4:53 pm 16:53 Cloudy 36 2.2 30 -1.1 79 79 SE 5 7 29.71 1006 8 13 0.00 0.00
5:53 pm 17:53 Cloudy 36 2.2 30 -1.1 79 79 E 6 9 29.72 1007 10 16 0.00 0.00
6:53 pm 18:53 Cloudy 35 1.7 29 -1.7 78 78 ESE 8 13 29.72 1006 10 16 0.00 0.00
7:53 pm 19:53 Cloudy 35 1.7 29 -1.7 78 78 SE 9 15 29.71 1006 10 16 0.00 0.00
8:03 pm 20:03 Cloudy 35 1.7 29 -1.7 78 78 SE 7 11 29.73 1007 10 16 0.00 0.00
8:53 pm 20:53 Cloudy 35 1.7 29 -1.7 78 78 SE 5 7 29.72 1007 10 16 0.00 0.00
9:53 pm 21:53 Cloudy 35 1.7 30 -1.1 82 82 SE 3 6 29.72 1007 9 14 0.00 0.00
10:53 pm 22:53 Cloudy 35 1.7 30 -1.1 82 82 SSE 3 6 29.72 1006 10 16 0.00 0.00
11:53 pm 23:53 Cloudy with Light Rain 35 1.7 31 -0.6 85 85 Calm 29.72 1006 5 8 0.01 0.25

Powered by AerisWeather